timestamp,wind_dir_avg,wind_spd_avg,wind_spd_max_dir,wind_spd_gust,battery_voltage,lat,long
2021-01-24 00:04:01+00:00,284.0,8.95,283.0,9.9,12.57,47.59359,-54.27349
2021-01-24 00:14:01+00:00,282.0,8.14,279.0,9.36,12.57,47.59359,-54.27349
2021-01-24 00:24:01+00:00,287.0,9.88,286.0,11.28,12.57,47.59359,-54.27349
2021-01-24 00:34:01+00:00,274.0,9.19,277.0,10.62,12.57,47.59359,-54.27349
2021-01-24 00:44:01+00:00,280.0,10.39,283.0,11.74,12.57,47.59359,-54.27349
2021-01-24 00:54:01+00:00,274.0,9.33,267.0,10.83,12.57,47.59359,-54.27349
2021-01-24 01:04:01+00:00,273.0,9.16,273.0,10.51,12.57,47.59359,-54.27349
2021-01-24 01:14:01+00:00,273.0,8.12,273.0,9.72,12.49,47.59359,-54.27349
2021-01-24 01:24:01+00:00,273.0,8.82,270.0,9.77,12.49,47.59359,-54.27349
2021-01-24 01:34:01+00:00,288.0,8.19,295.0,9.71,12.49,47.59359,-54.27349
2021-01-24 01:44:01+00:00,288.0,7.8,280.0,9.84,12.49,47.59359,-54.27349
2021-01-24 01:54:01+00:00,273.0,6.82,283.0,8.61,12.49,47.59359,-54.27349
2021-01-24 02:04:01+00:00,276.0,7.99,275.0,9.31,12.49,47.59359,-54.27349
2021-01-24 02:14:01+00:00,275.0,6.78,271.0,9.02,12.49,47.59359,-54.27349
2021-01-24 02:24:01+00:00,272.0,6.53,279.0,7.55,12.49,47.59359,-54.27349
2021-01-24 02:34:01+00:00,273.0,8.06,275.0,9.35,12.49,47.59359,-54.27349
2021-01-24 02:44:01+00:00,280.0,6.31,284.0,7.64,12.49,47.59359,-54.27349
2021-01-24 02:54:01+00:00,271.0,7.02,270.0,8.06,12.49,47.59359,-54.27349
2021-01-24 03:04:01+00:00,289.0,6.59,292.0,7.9,12.49,47.59359,-54.27349
2021-01-24 03:14:01+00:00,273.0,7.07,272.0,8.29,12.41,47.59359,-54.27349
2021-01-24 03:24:01+00:00,266.0,7.71,262.0,9.39,12.41,47.59359,-54.27349
2021-01-24 03:34:01+00:00,273.0,8.6,271.0,10.11,12.41,47.59359,-54.27349
2021-01-24 03:44:01+00:00,276.0,7.63,278.0,9.09,12.41,47.59359,-54.27349
2021-01-24 03:54:01+00:00,285.0,6.54,280.0,8.16,12.41,47.59359,-54.27349
2021-01-24 04:04:01+00:00,267.0,6.42,267.0,7.3,12.41,47.59359,-54.27349
2021-01-24 04:14:01+00:00,266.0,7.2,271.0,8.88,12.41,47.59359,-54.27349
2021-01-24 04:24:01+00:00,267.0,3.97,267.0,4.99,12.41,47.59359,-54.27349
2021-01-24 04:34:01+00:00,320.0,2.33,316.0,2.98,12.41,47.59359,-54.27349
2021-01-24 04:44:01+00:00,294.0,1.58,301.0,3.05,12.41,47.59359,-54.27349
2021-01-24 04:54:01+00:00,300.0,4.64,308.0,5.56,12.41,47.59359,-54.27349
2021-01-24 05:04:01+00:00,285.0,5.61,288.0,6.59,12.41,47.59359,-54.27349
2021-01-24 05:14:01+00:00,281.0,5.18,277.0,6.25,12.41,47.59359,-54.27349
2021-01-24 05:24:01+00:00,282.0,4.04,281.0,4.6,12.41,47.59359,-54.27349
2021-01-24 05:34:01+00:00,288.0,3.4,288.0,4.07,12.41,47.59359,-54.27349
2021-01-24 05:44:01+00:00,270.0,3.0,282.0,3.64,12.41,47.59359,-54.27349
2021-01-24 05:54:01+00:00,268.0,3.64,269.0,4.55,12.41,47.59359,-54.27349
2021-01-24 06:04:01+00:00,285.0,3.6,285.0,4.13,12.41,47.59359,-54.27349
2021-01-24 06:14:01+00:00,270.0,3.28,276.0,3.8,12.41,47.59359,-54.27349
2021-01-24 06:24:01+00:00,265.0,2.56,269.0,2.86,12.41,47.59359,-54.27349
2021-01-24 06:34:01+00:00,284.0,2.67,288.0,3.68,12.41,47.59359,-54.27349
2021-01-24 06:44:01+00:00,260.0,4.82,263.0,5.47,12.41,47.59359,-54.27349
2021-01-24 06:54:01+00:00,291.0,4.21,294.0,4.86,12.41,47.59359,-54.27349
2021-01-24 07:04:01+00:00,304.0,2.73,304.0,3.33,12.41,47.59359,-54.27349
2021-01-24 07:14:01+00:00,328.0,2.05,318.0,2.73,12.41,47.59359,-54.27349
2021-01-24 07:24:01+00:00,327.0,1.3,324.0,1.72,12.41,47.59359,-54.27349
2021-01-24 07:34:01+00:00,204.0,1.13,209.0,1.95,12.41,47.59359,-54.27349
2021-01-24 07:44:01+00:00,248.0,3.36,248.0,3.9,12.41,47.59359,-54.27349
2021-01-24 07:54:01+00:00,272.0,3.51,275.0,3.85,12.41,47.59359,-54.27349
2021-01-24 08:04:01+00:00,258.0,3.76,257.0,4.28,12.41,47.59359,-54.27349
2021-01-24 08:14:01+00:00,274.0,4.73,274.0,5.51,12.41,47.59359,-54.27349
2021-01-24 08:24:01+00:00,286.0,3.96,286.0,4.82,12.41,47.59359,-54.27349
2021-01-24 08:34:01+00:00,296.0,4.59,294.0,5.05,12.41,47.59359,-54.27349
2021-01-24 08:44:01+00:00,287.0,4.46,285.0,5.33,12.41,47.59359,-54.27349
2021-01-24 08:54:01+00:00,288.0,3.68,287.0,4.33,12.41,47.59359,-54.27349
2021-01-24 09:04:01+00:00,300.0,4.09,296.0,5.31,12.41,47.59359,-54.27349
2021-01-24 09:14:01+00:00,282.0,3.58,280.0,4.1,12.33,47.59359,-54.27349
2021-01-24 09:24:01+00:00,284.0,3.24,286.0,3.83,12.33,47.59359,-54.27349
2021-01-24 09:34:01+00:00,288.0,3.26,283.0,4.11,12.33,47.59359,-54.27349
2021-01-24 09:44:01+00:00,273.0,3.77,276.0,4.45,12.33,47.59359,-54.27349
2021-01-24 09:54:01+00:00,249.0,5.64,246.0,6.24,12.33,47.59359,-54.27349
2021-01-24 10:04:01+00:00,247.0,4.45,245.0,5.3,12.33,47.59359,-54.27349
2021-01-24 10:14:01+00:00,234.0,3.94,238.0,4.41,12.33,47.59359,-54.27349
2021-01-24 10:24:01+00:00,232.0,3.32,233.0,3.83,12.33,47.59359,-54.27349
2021-01-24 10:34:01+00:00,228.0,4.91,230.0,5.55,12.33,47.59359,-54.27349
2021-01-24 10:44:01+00:00,238.0,4.95,240.0,5.89,12.33,47.59359,-54.27349
2021-01-24 10:54:01+00:00,254.0,4.81,247.0,5.45,12.33,47.59359,-54.27349
2021-01-24 11:04:01+00:00,252.0,4.56,249.0,5.08,12.33,47.59359,-54.27349
2021-01-24 11:14:01+00:00,258.0,3.74,253.0,4.29,12.33,47.59359,-54.27349
2021-01-24 11:24:01+00:00,276.0,4.47,282.0,5.2,12.33,47.59359,-54.27349
2021-01-24 11:34:01+00:00,279.0,4.28,279.0,4.87,12.33,47.59359,-54.27349
2021-01-24 11:44:01+00:00,273.0,4.63,266.0,5.54,12.33,47.59359,-54.27349
2021-01-24 11:54:01+00:00,277.0,4.59,282.0,5.06,12.33,47.59359,-54.27349
2021-01-24 12:04:01+00:00,275.0,4.21,273.0,5.2,12.33,47.59359,-54.27349
2021-01-24 12:14:01+00:00,266.0,4.07,266.0,5.07,12.57,47.59359,-54.27349
2021-01-24 12:24:01+00:00,274.0,4.09,275.0,4.64,12.57,47.59359,-54.27349
2021-01-24 12:34:01+00:00,272.0,4.52,275.0,5.78,12.57,47.59359,-54.27349
2021-01-24 12:44:01+00:00,257.0,4.25,257.0,5.03,12.57,47.59359,-54.27349
2021-01-24 12:54:01+00:00,251.0,3.52,251.0,4.1,12.57,47.59359,-54.27349
2021-01-24 13:04:01+00:00,233.0,4.04,232.0,4.35,12.57,47.59359,-54.27349
2021-01-24 13:14:01+00:00,246.0,3.69,236.0,4.48,13.68,47.59359,-54.27349
2021-01-24 13:24:01+00:00,238.0,4.21,237.0,4.52,13.68,47.59359,-54.27349
2021-01-24 13:34:01+00:00,229.0,3.92,224.0,4.81,13.68,47.59359,-54.27349
2021-01-24 13:44:01+00:00,236.0,3.82,237.0,4.41,13.68,47.59359,-54.27349
2021-01-24 13:54:01+00:00,238.0,3.31,238.0,3.76,13.68,47.59359,-54.27349
2021-01-24 14:04:01+00:00,262.0,3.37,258.0,3.88,13.68,47.59359,-54.27349
2021-01-24 14:14:01+00:00,264.0,3.36,264.0,3.8,13.68,47.59359,-54.27349
2021-01-24 14:24:01+00:00,247.0,3.64,253.0,4.29,13.68,47.59359,-54.27349
2021-01-24 14:34:01+00:00,250.0,4.03,235.0,5.26,13.68,47.59359,-54.27349
2021-01-24 14:44:01+00:00,267.0,6.2,267.0,7.2,13.68,47.59359,-54.27349
2021-01-24 14:54:01+00:00,277.0,5.48,282.0,6.05,13.68,47.59359,-54.27349
2021-01-24 15:04:01+00:00,264.0,4.7,264.0,5.42,13.68,47.59359,-54.27349
2021-01-24 15:14:01+00:00,245.0,3.96,247.0,4.39,14.32,47.59359,-54.27349
2021-01-24 15:24:01+00:00,266.0,5.45,265.0,7.21,14.32,47.59359,-54.27349
2021-01-24 15:34:01+00:00,239.0,3.81,235.0,4.21,14.32,47.59359,-54.27349
2021-01-24 15:44:01+00:00,229.0,3.67,227.0,4.36,14.32,47.59359,-54.27349
2021-01-24 15:54:01+00:00,265.0,4.12,255.0,5.37,14.32,47.59359,-54.27349
2021-01-24 16:04:01+00:00,253.0,3.18,240.0,3.74,14.32,47.59359,-54.27349
2021-01-24 16:14:01+00:00,270.0,4.4,276.0,5.06,13.68,47.59359,-54.27349
2021-01-24 16:24:01+00:00,268.0,3.58,265.0,3.99,13.68,47.59359,-54.27349
2021-01-24 16:34:01+00:00,299.0,3.53,299.0,3.91,13.68,47.59359,-54.27349
2021-01-24 16:44:01+00:00,305.0,2.5,306.0,3.68,13.68,47.59359,-54.27349
2021-01-24 16:54:01+00:00,295.0,2.56,294.0,3.1,13.68,47.59359,-54.27349
2021-01-24 17:04:01+00:00,312.0,3.95,320.0,4.65,13.68,47.59359,-54.27349
2021-01-24 17:14:01+00:00,300.0,3.52,303.0,3.98,13.68,47.59359,-54.27349
2021-01-24 17:24:01+00:00,283.0,2.36,286.0,2.83,13.68,47.59359,-54.27349
2021-01-24 17:34:01+00:00,261.0,2.97,247.0,3.53,13.68,47.59359,-54.27349
2021-01-24 17:44:01+00:00,275.0,2.98,271.0,3.49,13.68,47.59359,-54.27349
2021-01-24 17:54:01+00:00,280.0,3.5,276.0,4.29,13.68,47.59359,-54.27349
2021-01-24 18:04:01+00:00,274.0,4.37,275.0,4.83,13.68,47.59359,-54.27349
2021-01-24 18:14:01+00:00,248.0,4.44,247.0,5.23,14.32,47.59359,-54.27349
2021-01-24 18:24:01+00:00,252.0,4.82,258.0,5.26,14.32,47.59359,-54.27349
2021-01-24 18:34:01+00:00,265.0,5.17,265.0,6.06,14.32,47.59359,-54.27349
2021-01-24 18:44:01+00:00,255.0,3.9,258.0,4.37,14.32,47.59359,-54.27349
2021-01-24 18:54:01+00:00,275.0,4.17,283.0,5.04,14.32,47.59359,-54.27349
2021-01-24 19:04:01+00:00,252.0,4.92,257.0,6.83,14.32,47.59359,-54.27349
2021-01-24 19:14:01+00:00,265.0,4.7,267.0,6.92,14.08,47.59359,-54.27349
2021-01-24 19:24:01+00:00,292.0,5.13,279.0,6.94,14.08,47.59359,-54.27349
2021-01-24 19:34:01+00:00,264.0,4.38,268.0,5.08,14.08,47.59359,-54.27349
2021-01-24 19:44:01+00:00,255.0,4.8,255.0,6.03,14.08,47.59359,-54.27349
2021-01-24 19:54:01+00:00,279.0,5.96,279.0,8.88,14.08,47.59359,-54.27349
2021-01-24 20:04:01+00:00,282.0,5.31,278.0,7.88,14.08,47.59359,-54.27349
2021-01-24 20:14:01+00:00,289.0,5.08,292.0,5.8,13.37,47.59359,-54.27349
2021-01-24 20:24:01+00:00,278.0,4.66,275.0,5.35,13.37,47.59359,-54.27349
2021-01-24 20:34:01+00:00,278.0,5.15,273.0,6.73,13.37,47.59359,-54.27349
2021-01-24 20:44:01+00:00,277.0,4.64,274.0,5.67,13.37,47.59359,-54.27349
2021-01-24 20:54:01+00:00,275.0,4.64,275.0,5.18,13.37,47.59359,-54.27349
2021-01-24 21:04:01+00:00,265.0,4.42,268.0,4.88,13.37,47.59359,-54.27349
2021-01-24 21:14:01+00:00,261.0,4.95,260.0,5.3,12.65,47.59359,-54.27349
2021-01-24 21:24:01+00:00,256.0,4.81,258.0,5.38,12.65,47.59359,-54.27349
2021-01-24 21:34:01+00:00,262.0,4.21,264.0,4.56,12.65,47.59359,-54.27349
2021-01-24 21:44:01+00:00,266.0,3.73,261.0,4.64,12.65,47.59359,-54.27349
2021-01-24 21:54:01+00:00,273.0,4.14,275.0,4.72,12.65,47.59359,-54.27349
2021-01-24 22:04:01+00:00,258.0,4.27,268.0,4.81,12.65,47.59359,-54.27349
2021-01-24 22:14:01+00:00,265.0,4.94,267.0,5.41,12.57,47.59359,-54.27349
2021-01-24 22:24:01+00:00,266.0,3.96,266.0,4.49,12.57,47.59359,-54.27349
2021-01-24 22:34:01+00:00,267.0,4.7,267.0,5.56,12.57,47.59359,-54.27349
2021-01-24 22:44:01+00:00,268.0,4.44,269.0,5.04,12.57,47.59359,-54.27349
2021-01-24 22:54:01+00:00,264.0,4.74,266.0,5.01,12.57,47.59359,-54.27349
2021-01-24 23:04:01+00:00,259.0,3.9,261.0,4.35,12.57,47.59359,-54.27349
2021-01-24 23:14:01+00:00,273.0,3.24,283.0,3.83,12.57,47.59359,-54.27349
2021-01-24 23:24:01+00:00,267.0,3.0,273.0,3.72,12.57,47.59359,-54.27349
2021-01-24 23:34:01+00:00,262.0,2.82,256.0,3.25,12.57,47.59359,-54.27349
2021-01-24 23:44:01+00:00,286.0,3.22,285.0,3.68,12.57,47.59359,-54.27349
2021-01-24 23:54:01+00:00,275.0,2.43,286.0,2.83,12.57,47.59359,-54.27349
